Satellite-Ground Cal/Val Site Overpasses Predictions

Prediction of Satellite NPP Overpassing Cal/Val Site: Antarctic Dome C

Ground Cal/Val Site Location: Latitude: -75.10, Longitude: 123.35; Satellite-Ground Site NADIR distance within 100 km.

Table of predicted overpasses for the next 14.0 days since TLE Epoch: 7/3/2021
Interval Starting Time Ending Time Minimum Distance Time Minimum Distance (km)
1 07/03/2021 14:54:57 07/03/2021 14:55:25 07/03/2021 14:55:11 23.16
2 07/04/2021 14:36:15 07/04/2021 14:36:31 07/04/2021 14:36:23 83.80
3 07/05/2021 07:37:48 07/05/2021 07:38:15 07/05/2021 07:38:02 35.96
4 07/06/2021 07:19:03 07/06/2021 07:19:23 07/06/2021 07:19:13 74.05
5 07/08/2021 15:01:20 07/08/2021 15:01:43 07/08/2021 15:01:32 60.55
6 07/09/2021 14:42:30 07/09/2021 14:42:55 07/09/2021 14:42:42 48.67
7 07/10/2021 07:44:12 07/10/2021 07:44:32 07/10/2021 07:44:22 71.30
8 07/11/2021 07:25:20 07/11/2021 07:25:47 07/11/2021 07:25:34 36.46
9 07/13/2021 15:07:49 07/13/2021 15:07:54 07/13/2021 15:07:51 98.58
10 07/14/2021 14:48:48 07/14/2021 14:49:17 07/14/2021 14:49:03 12.96
